| time (UTC) | temp C | wind direction | speed KPH | gust KPH | rain 1hr cm | rain 24hr cm | rain mn cm | humidity % | barometer mb |
| 20260503192955 | 15 | 319 | 0.0 | 1.6 | 0.00 | 0.10 | 0.10 | 87 | 1016.7 |
| 20260503192455 | 15 | 340 | 0.0 | 3.2 | 0.00 | 0.10 | 0.10 | 86 | 1016.8 |
| 20260503191955 | 15 | 277 | 0.0 | 6.4 | 0.00 | 0.10 | 0.10 | 87 | 1016.7 |
| 20260503191454 | 15 | 282 | 1.6 | 3.2 | 0.00 | 0.10 | 0.10 | 88 | 1016.7 |
| 20260503190955 | 15 | 307 | 1.6 | 4.8 | 0.00 | 0.10 | 0.10 | 89 | 1016.8 |
| 20260503190455 | 15 | 281 | 0.0 | 6.4 | 0.00 | 0.10 | 0.10 | 89 | 1016.8 |
| 20260503185955 | 15 | 329 | 0.0 | 6.4 | 0.00 | 0.10 | 0.10 | 90 | 1016.8 |
| 20260503185455 | 15 | 331 | 3.2 | 4.8 | 0.00 | 0.10 | 0.10 | 91 | 1016.9 |
| 20260503184955 | 15 | 281 | 1.6 | 4.8 | 0.00 | 0.10 | 0.10 | 90 | 1016.9 |
| 20260503184455 | 14 | 260 | 0.0 | 1.6 | 0.00 | 0.10 | 0.10 | 91 | 1016.9 |
| 20260503183955 | 14 | 289 | 0.0 | 4.8 | 0.00 | 0.10 | 0.10 | 90 | 1016.9 |
| 20260503183455 | 14 | 282 | 0.0 | 6.4 | 0.00 | 0.10 | 0.10 | 92 | 1017.0 |
| 20260503182955 | 14 | 343 | 1.6 | 6.4 | 0.00 | 0.10 | 0.10 | 93 | 1017.0 |
| 20260503182455 | 14 | 309 | 3.2 | 6.4 | 0.00 | 0.10 | 0.10 | 92 | 1017.0 |
| 20260503181955 | 14 | 357 | 4.8 | 4.8 | 0.00 | 0.10 | 0.10 | 93 | 1017.0 |
| 20260503181455 | 14 | 330 | 3.2 | 4.8 | 0.00 | 0.10 | 0.10 | 93 | 1017.0 |
| 20260503180955 | 14 | 295 | 1.6 | 4.8 | 0.00 | 0.10 | 0.10 | 92 | 1016.8 |
| 20260503180455 | 14 | 313 | 0.0 | 6.4 | 0.00 | 0.10 | 0.10 | 92 | 1016.9 |
| 20260503175955 | 15 | 244 | 0.0 | 9.7 | 0.00 | 0.10 | 0.10 | 91 | 1016.9 |
| 20260503175455 | 15 | 296 | 8.0 | 8.0 | 0.00 | 0.10 | 0.10 | 90 | 1016.8 |
| 20260503174955 | 15 | 30 | 0.0 | 3.2 | 0.00 | 0.10 | 0.10 | 89 | 1016.8 |
| 20260503174455 | 15 | 354 | 0.0 | 3.2 | 0.00 | 0.10 | 0.10 | 89 | 1016.7 |
| 20260503173955 | 15 | 33 | 0.0 | 3.2 | 0.00 | 0.10 | 0.10 | 90 | 1016.8 |
| 20260503173455 | 15 | 49 | 0.0 | 3.2 | 0.00 | 0.10 | 0.10 | 90 | 1016.8 |
| 20260503172955 | 15 | 91 | 0.0 | 4.8 | 0.00 | 0.10 | 0.10 | 90 | 1016.8 |
| 20260503172455 | 15 | 87 | 0.0 | 6.4 | 0.00 | 0.10 | 0.10 | 90 | 1016.8 |
| 20260503171955 | 15 | 84 | 0.0 | 3.2 | 0.00 | 0.10 | 0.10 | 91 | 1016.7 |
| 20260503171455 | 15 | 104 | 3.2 | 3.2 | 0.00 | 0.10 | 0.10 | 89 | 1016.7 |
| 20260503170955 | 15 | 71 | 0.0 | 4.8 | 0.00 | 0.10 | 0.10 | 91 | 1016.8 |
| 20260503170455 | 15 | 161 | 0.0 | 0.0 | 0.00 | 0.10 | 0.10 | 90 | 1016.8 |
| 20260503150955 | 13 | 281 | 0.0 | 0.0 | 0.00 | 0.10 | 0.10 | 94 | 1015.9 |
| 20260503150455 | 13 | 281 | 0.0 | 0.0 | 0.00 | 0.10 | 0.10 | 95 | 1015.8 |
| 20260503130955 | 12 | 309 | 0.0 | 0.0 | 0.03 | 0.10 | 0.10 | 96 | 1015.4 |
| 20260503130455 | 12 | 223 | 0.0 | 3.2 | 0.03 | 0.10 | 0.10 | 96 | 1015.5 |
| 20260503110455 | 13 | 261 | 3.2 | 11.3 | 0.03 | 0.05 | 0.05 | 96 | 1014.5 |
| 20260503090455 | 13 | 236 | 8.0 | 9.7 | 0.00 | 0.00 | 0.00 | 95 | 1014.3 |
| 20260503081458 | 15 | 56 | 0.0 | 6.4 | 0.00 | 0.00 | 0.00 | 93 | 1014.6 |
| 20260503081455 | 15 | 56 | 0.0 | 11.3 | 0.00 | 0.00 | 0.00 | 93 | 1014.6 |
| 20260503080955 | 15 | 111 | 8.0 | 11.3 | 0.00 | 0.00 | 0.00 | 93 | 1014.6 |
| 20260503080455 | 15 | 101 | 6.4 | 11.3 | 0.00 | 0.00 | 0.00 | 92 | 1014.6 |
| 20260503072455 | 15 | 240 | 4.8 | 6.4 | 0.00 | 0.00 | 0.00 | 91 | 1014.6 |
| 20260503071955 | 15 | 136 | 6.4 | 6.4 | 0.00 | 0.00 | 0.00 | 92 | 1014.5 |
| 20260503071455 | 15 | 199 | 3.2 | 6.4 | 0.00 | 0.00 | 0.00 | 91 | 1014.5 |
| 20260503070955 | 15 | 165 | 4.8 | 6.4 | 0.00 | 0.00 | 0.00 | 91 | 1014.5 |
| 20260503070455 | 14 | 178 | 1.6 | 6.4 | 0.00 | 0.00 | 0.00 | 92 | 1014.5 |
| 20260503054955 | 14 | 289 | 0.0 | 6.4 | 0.00 | 0.00 | 0.00 | 91 | 1014.3 |
| 20260503054455 | 14 | 296 | 1.6 | 6.4 | 0.00 | 0.00 | 0.00 | 91 | 1014.2 |
| 20260503053955 | 14 | 298 | 3.2 | 8.0 | 0.00 | 0.00 | 0.00 | 90 | 1014.1 |
| 20260503053455 | 14 | 253 | 4.8 | 9.7 | 0.00 | 0.00 | 0.00 | 90 | 1014.1 |
| 20260503052955 | 15 | 291 | 8.0 | 8.0 | 0.00 | 0.00 | 0.00 | 89 | 1014.0 |
| 20260503052455 | 15 | 261 | 1.6 | 4.8 | 0.00 | 0.00 | 0.00 | 88 | 1013.9 |
| 20260503051955 | 15 | 109 | 0.0 | 1.6 | 0.00 | 0.00 | 0.00 | 88 | 1013.9 |
| 20260503051455 | 15 | 82 | 0.0 | 3.2 | 0.00 | 0.00 | 0.00 | 88 | 1013.9 |
| 20260503050955 | 15 | 9 | 0.0 | 3.2 | 0.00 | 0.00 | 0.00 | 89 | 1013.8 |
| 20260503050456 | 15 | 1 | 1.6 | 3.2 | 0.00 | 0.00 | 0.00 | 90 | 1013.9 |
| 20260503045955 | 15 | 268 | 0.0 | 4.8 | 0.00 | 0.00 | 0.00 | 89 | 1013.9 |
| 20260503045455 | 15 | 306 | 4.8 | 4.8 | 0.00 | 0.00 | 0.00 | 89 | 1013.9 |
| 20260503044955 | 15 | 274 | 0.0 | 4.8 | 0.00 | 0.00 | 0.00 | 89 | 1013.8 |
| 20260503044456 | 15 | 237 | 3.2 | 6.4 | 0.00 | 0.00 | 0.00 | 89 | 1013.9 |
| 20260503043956 | 15 | 285 | 3.2 | 4.8 | 0.00 | 0.00 | 0.00 | 88 | 1013.8 |
| 20260503043456 | 15 | 288 | 3.2 | 3.2 | 0.00 | 0.00 | 0.00 | 88 | 1013.7 |
| 20260503042956 | 15 | 282 | 0.0 | 3.2 | 0.00 | 0.00 | 0.00 | 88 | 1013.7 |
| 20260503042456 | 15 | 267 | 3.2 | 6.4 | 0.00 | 0.00 | 0.00 | 88 | 1013.6 |
| 20260503041956 | 15 | 253 | 0.0 | 4.8 | 0.00 | 0.00 | 0.00 | 88 | 1013.5 |
| 20260503041456 | 15 | 323 | 1.6 | 3.2 | 0.00 | 0.00 | 0.00 | 88 | 1013.3 |
| 20260503040956 | 15 | 271 | 1.6 | 6.4 | 0.00 | 0.00 | 0.00 | 88 | 1013.2 |
| 20260503040456 | 15 | 292 | 3.2 | 3.2 | 0.00 | 0.00 | 0.00 | 87 | 1013.0 |
| 20260503035956 | 15 | 275 | 3.2 | 6.4 | 0.00 | 0.00 | 0.00 | 87 | 1012.9 |
| 20260503035456 | 15 | 340 | 0.0 | 6.4 | 0.00 | 0.00 | 0.00 | 86 | 1012.9 |
| 20260503034956 | 15 | 250 | 4.8 | 6.4 | 0.00 | 0.00 | 0.00 | 86 | 1012.8 |
| 20260503034456 | 15 | 306 | 1.6 | 8.0 | 0.00 | 0.00 | 0.00 | 86 | 1012.7 |
| 20260503033956 | 16 | 243 | 3.2 | 8.0 | 0.00 | 0.00 | 0.00 | 85 | 1012.5 |
| 20260503033456 | 16 | 223 | 1.6 | 8.0 | 0.00 | 0.00 | 0.00 | 84 | 1012.5 |
| 20260503032956 | 15 | 277 | 4.8 | 8.0 | 0.00 | 0.00 | 0.00 | 84 | 1012.4 |
| 20260503032456 | 16 | 270 | 3.2 | 9.7 | 0.00 | 0.00 | 0.00 | 84 | 1012.4 |
| 20260503031956 | 16 | 244 | 6.4 | 9.7 | 0.00 | 0.00 | 0.00 | 83 | 1012.2 |
| 20260503031456 | 16 | 272 | 6.4 | 8.0 | 0.00 | 0.00 | 0.00 | 83 | 1012.1 |
| 20260503030956 | 16 | 284 | 3.2 | 8.0 | 0.00 | 0.00 | 0.00 | 82 | 1012.1 |
| 20260503030456 | 16 | 265 | 3.2 | 9.7 | 0.00 | 0.00 | 0.00 | 82 | 1011.9 |
| 20260503025956 | 16 | 279 | 0.0 | 8.0 | 0.00 | 0.00 | 0.00 | 82 | 1011.7 |
| 20260503025456 | 16 | 271 | 6.4 | 9.7 | 0.00 | 0.00 | 0.00 | 82 | 1011.6 |
| 20260503024956 | 16 | 289 | 3.2 | 8.0 | 0.00 | 0.00 | 0.00 | 81 | 1011.5 |
| 20260503024456 | 17 | 292 | 1.6 | 6.4 | 0.00 | 0.00 | 0.00 | 80 | 1011.3 |
| 20260503023956 | 17 | 222 | 0.0 | 9.7 | 0.00 | 0.00 | 0.00 | 80 | 1011.2 |
| 20260503023456 | 17 | 262 | 6.4 | 6.4 | 0.00 | 0.00 | 0.00 | 79 | 1011.1 |
| 20260503023001 | 17 | 265 | 6.4 | 8.0 | 0.00 | 0.00 | 0.00 | 78 | 1011.1 |
| 20260503022956 | 17 | 236 | 6.4 | 8.0 | 0.00 | 0.00 | 0.00 | 79 | 1011.1 |
| 20260503022456 | 17 | 265 | 6.4 | 8.0 | 0.00 | 0.00 | 0.00 | 78 | 1011.1 |
| 20260503021956 | 17 | 246 | 3.2 | 9.7 | 0.00 | 0.00 | 0.00 | 77 | 1011.0 |
| 20260503021456 | 17 | 237 | 8.0 | 11.3 | 0.00 | 0.00 | 0.00 | 77 | 1011.0 |
| 20260503020956 | 17 | 239 | 11.3 | 12.9 | 0.00 | 0.00 | 0.00 | 76 | 1010.9 |
| 20260503020456 | 17 | 234 | 4.8 | 9.7 | 0.00 | 0.00 | 0.00 | 75 | 1010.7 |
| 20260503015956 | 18 | 234 | 6.4 | 14.5 | 0.00 | 0.00 | 0.00 | 75 | 1010.7 |
| 20260503015456 | 17 | 223 | 6.4 | 12.9 | 0.00 | 0.00 | 0.00 | 74 | 1010.7 |
| 20260503014956 | 18 | 250 | 8.0 | 12.9 | 0.00 | 0.00 | 0.00 | 73 | 1010.5 |
| 20260503014456 | 18 | 246 | 8.0 | 12.9 | 0.00 | 0.00 | 0.00 | 72 | 1010.5 |
| 20260503013956 | 18 | 239 | 8.0 | 12.9 | 0.00 | 0.00 | 0.00 | 72 | 1010.4 |
| 20260503013456 | 18 | 234 | 9.7 | 12.9 | 0.00 | 0.00 | 0.00 | 71 | 1010.4 |
| 20260503012956 | 19 | 248 | 11.3 | 11.3 | 0.00 | 0.00 | 0.00 | 70 | 1010.3 |
| 20260503012456 | 19 | 264 | 4.8 | 11.3 | 0.00 | 0.00 | 0.00 | 70 | 1010.4 |
| 20260503011956 | 19 | 230 | 3.2 | 14.5 | 0.00 | 0.00 | 0.00 | 71 | 1010.4 |
| 20260503011456 | 19 | 234 | 11.3 | 14.5 | 0.00 | 0.00 | 0.00 | 70 | 1010.4 |
| 20260503010956 | 19 | 262 | 8.0 | 12.9 | 0.00 | 0.00 | 0.00 | 70 | 1010.4 |
| 20260503010456 | 20 | 291 | 6.4 | 12.9 | 0.00 | 0.00 | 0.00 | 69 | 1010.4 |
| 20260503005956 | 20 | 234 | 4.8 | 11.3 | 0.00 | 0.00 | 0.00 | 68 | 1010.4 |
| 20260503005456 | 20 | 194 | 6.4 | 12.9 | 0.00 | 0.00 | 0.00 | 69 | 1010.4 |
| 20260503004956 | 20 | 240 | 3.2 | 9.7 | 0.00 | 0.00 | 0.00 | 69 | 1010.4 |
| 20260503004456 | 20 | 247 | 1.6 | 14.5 | 0.00 | 0.00 | 0.00 | 68 | 1010.5 |
| 20260503003956 | 20 | 240 | 4.8 | 12.9 | 0.00 | 0.00 | 0.00 | 68 | 1010.6 |
| 20260503003456 | 20 | 267 | 6.4 | 9.7 | 0.00 | 0.00 | 0.00 | 66 | 1010.8 |
| 20260503002956 | 20 | 251 | 0.0 | 12.9 | 0.00 | 0.00 | 0.00 | 67 | 1010.9 |
| 20260503002456 | 20 | 253 | 3.2 | 11.3 | 0.00 | 0.00 | 0.00 | 67 | 1011.0 |
| 20260503001956 | 20 | 268 | 8.0 | 14.5 | 0.00 | 0.00 | 0.00 | 68 | 1011.0 |
| 20260503001456 | 20 | 257 | 8.0 | 16.1 | 0.00 | 0.00 | 0.00 | 68 | 1011.0 |
| 20260503000956 | 20 | 282 | 8.0 | 14.5 | 0.00 | 0.00 | 0.00 | 68 | 1011.0 |
| 20260503000456 | 20 | 251 | 9.7 | 16.1 | 0.00 | 0.00 | 0.00 | 68 | 1009.9 |
| 20260502235956 | 20 | 205 | 9.7 | 16.1 | 0.00 | 0.00 | 0.00 | 68 | 1010.9 |
| 20260502235456 | 20 | 251 | 3.2 | 12.9 | 0.00 | 0.00 | 0.00 | 68 | 1011.0 |
| 20260502234956 | 20 | 277 | 12.9 | 16.1 | 0.00 | 0.00 | 0.00 | 67 | 1011.0 |
| 20260502234456 | 20 | 240 | 8.0 | 12.9 | 0.00 | 0.00 | 0.00 | 67 | 1011.1 |
| 20260502233956 | 20 | 255 | 4.8 | 12.9 | 0.00 | 0.00 | 0.00 | 67 | 1011.1 |
| 20260502233456 | 20 | 262 | 9.7 | 19.3 | 0.00 | 0.00 | 0.00 | 68 | 1011.1 |
| 20260502232956 | 20 | 306 | 6.4 | 19.3 | 0.00 | 0.00 | 0.00 | 66 | 1011.2 |
| 20260502232456 | 21 | 306 | 4.8 | 17.7 | 0.00 | 0.00 | 0.00 | 66 | 1011.3 |
| 20260502231956 | 20 | 261 | 8.0 | 17.7 | 0.00 | 0.00 | 0.00 | 66 | 1011.3 |
| 20260502231456 | 21 | 243 | 11.3 | 17.7 | 0.00 | 0.00 | 0.00 | 66 | 1011.3 |
| 20260502230956 | 20 | 270 | 8.0 | 16.1 | 0.00 | 0.00 | 0.00 | 68 | 1011.3 |
| 20260502230456 | 20 | 285 | 14.5 | 19.3 | 0.00 | 0.00 | 0.00 | 69 | 1011.4 |
| 20260502225956 | 20 | 279 | 4.8 | 17.7 | 0.00 | 0.00 | 0.00 | 68 | 1011.5 |
| 20260502225456 | 20 | 244 | 14.5 | 20.9 | 0.00 | 0.00 | 0.00 | 68 | 1011.6 |
| 20260502224956 | 20 | 261 | 1.6 | 19.3 | 0.00 | 0.00 | 0.00 | 67 | 1011.9 |
| 20260502224456 | 20 | 255 | 6.4 | 17.7 | 0.00 | 0.00 | 0.00 | 68 | 1011.8 |
| 20260502223956 | 20 | 258 | 4.8 | 17.7 | 0.00 | 0.00 | 0.00 | 68 | 1011.9 |
| 20260502223456 | 20 | 270 | 8.0 | 20.9 | 0.00 | 0.00 | 0.00 | 67 | 1012.2 |
| 20260502222956 | 21 | 270 | 9.7 | 20.9 | 0.00 | 0.00 | 0.00 | 66 | 1012.3 |
| 20260502222456 | 21 | 225 | 8.0 | 19.3 | 0.00 | 0.00 | 0.00 | 66 | 1012.3 |
| 20260502221956 | 21 | 270 | 9.7 | 17.7 | 0.00 | 0.00 | 0.00 | 66 | 1012.4 |
| 20260502221456 | 21 | 233 | 4.8 | 17.7 | 0.00 | 0.00 | 0.00 | 66 | 1012.6 |
| 20260502220956 | 21 | 261 | 11.3 | 22.5 | 0.00 | 0.00 | 0.00 | 66 | 1012.7 |
| 20260502220456 | 21 | 261 | 12.9 | 16.1 | 0.00 | 0.00 | 0.00 | 67 | 1012.7 |
| 20260502215956 | 21 | 267 | 8.0 | 22.5 | 0.00 | 0.00 | 0.00 | 67 | 1012.9 |
| 20260502215456 | 21 | 327 | 6.4 | 19.3 | 0.00 | 0.00 | 0.00 | 67 | 1013.0 |
| 20260502214956 | 21 | 289 | 12.9 | 17.7 | 0.00 | 0.00 | 0.00 | 65 | 1013.1 |
| 20260502214456 | 21 | 189 | 16.1 | 17.7 | 0.00 | 0.00 | 0.00 | 66 | 1013.1 |
| 20260502213956 | 21 | 265 | 8.0 | 17.7 | 0.00 | 0.00 | 0.00 | 66 | 1013.2 |
| 20260502213456 | 21 | 237 | 16.1 | 19.3 | 0.00 | 0.00 | 0.00 | 67 | 1013.4 |
| 20260502212956 | 21 | 233 | 12.9 | 19.3 | 0.00 | 0.00 | 0.00 | 67 | 1013.4 |
| 20260502212456 | 21 | 251 | 3.2 | 17.7 | 0.00 | 0.00 | 0.00 | 66 | 1013.4 |
| 20260502211956 | 21 | 236 | 11.3 | 17.7 | 0.00 | 0.00 | 0.00 | 66 | 1013.5 |
| 20260502211456 | 21 | 240 | 8.0 | 19.3 | 0.00 | 0.00 | 0.00 | 65 | 1013.5 |
| 20260502210956 | 21 | 227 | 11.3 | 16.1 | 0.00 | 0.00 | 0.00 | 67 | 1013.4 |
| 20260502210456 | 21 | 258 | 8.0 | 14.5 | 0.00 | 0.00 | 0.00 | 67 | 1013.5 |
| 20260502205956 | 21 | 230 | 8.0 | 14.5 | 0.00 | 0.00 | 0.00 | 67 | 1013.5 |
| 20260502205456 | 21 | 265 | 1.6 | 16.1 | 0.00 | 0.00 | 0.00 | 66 | 1013.6 |
| 20260502204956 | 21 | 237 | 9.7 | 12.9 | 0.00 | 0.00 | 0.00 | 67 | 1013.7 |
| 20260502204456 | 21 | 293 | 9.7 | 14.5 | 0.00 | 0.00 | 0.00 | 68 | 1013.7 |
| 20260502203956 | 21 | 239 | 12.9 | 14.5 | 0.00 | 0.00 | 0.00 | 68 | 1013.8 |
| 20260502203456 | 20 | 240 | 6.4 | 19.3 | 0.00 | 0.00 | 0.00 | 68 | 1013.8 |
| 20260502202956 | 21 | 220 | 9.7 | 14.5 | 0.00 | 0.00 | 0.00 | 68 | 1013.8 |
| 20260502202456 | 21 | 281 | 6.4 | 16.1 | 0.00 | 0.00 | 0.00 | 68 | 1013.9 |
| 20260502201956 | 21 | 240 | 9.7 | 22.5 | 0.00 | 0.00 | 0.00 | 66 | 1014.0 |
| 20260502201456 | 21 | 246 | 3.2 | 12.9 | 0.00 | 0.00 | 0.00 | 68 | 1014.0 |
| 20260502200956 | 21 | 246 | 1.6 | 11.3 | 0.00 | 0.00 | 0.00 | 68 | 1013.9 |
| 20260502200456 | 21 | 209 | 1.6 | 6.4 | 0.00 | 0.00 | 0.00 | 69 | 1013.9 |
| 20260502195956 | 20 | 212 | 0.0 | 9.7 | 0.00 | 0.00 | 0.00 | 71 | 1014.2 |
| 20260502195456 | 20 | 284 | 0.0 | 8.0 | 0.00 | 0.00 | 0.00 | 70 | 1014.4 |
| 20260502194956 | 20 | 223 | 1.6 | 8.0 | 0.00 | 0.00 | 0.00 | 71 | 1014.5 |
| 20260502194456 | 20 | 247 | 6.4 | 11.3 | 0.00 | 0.00 | 0.00 | 72 | 1014.7 |
| 20260502193956 | 20 | 270 | 8.0 | 11.3 | 0.00 | 0.00 | 0.00 | 72 | 1014.8 |
| 20260502193456 | 19 | 250 | 6.4 | 14.5 | 0.00 | 0.00 | 0.00 | 73 | 1014.9 |